LILACSAT-2

Last updated on Sun Apr 12 2026 00:03:15 GMT+0000 (Coordinated Universal Time)

1 40908U 15049K 26101.53286263 .00013151 00000+0 24176-3 0 9998 2 40908 97.4754 135.9176 0008775 127.3767 232.8284 15.49311389585428
UTC large
Height (km)
Speed (km/s)
/
Latitude / Longitude
Inclination (degrees)
Orbital Period (minutes)
Azimuth
Elevation
Range (km)
Doppler Factor

Next 0 passes for location: London (51.5072 / 0.1276)

Sorry there are no passes over London.
LILACSAT-2